Retour au catalogue

COSMOS 1275 DEB

ActifPO
NORAD 39967·DEBRIS·🇷🇺 Russia

Lancé Jun 4, 1981 depuis Plesetsk Cosmodrome

Loading…

Prochains Passages (prochaines 24 heures)

TLE

FraisSource: Space-Track

Époque: Sep 11, 2026, 21:59 UTC

1 39967U 81053PD  26254.91649375  .00000632  00000-0  43317-3 0  9996
2 39967  82.9246 319.5769 0029318 277.8187  81.9654 13.97972696623564

Suivez COSMOS 1275 DEB en temps réel avec AllMySat

Download on the App Store